Weather History for Naples, Italy

Change the Weather History Date:

Friday, February 15, 2013

  Actual Average Record
Temperature  
Mean Temperature 46 °F -  
Max Temperature 55 °F 58 °F 64 °F (2002)
Min Temperature 37 °F 42 °F 30 °F (2012)
Degree Days  
Heating Degree Days 19    
Moisture  
Dew Point 39 °F    
Average Humidity 76    
Maximum Humidity 87    
Minimum Humidity 58    
Precipitation  
Precipitation 0.00 in 0.12 in - ()
Sea Level Pressure  
Sea Level Pressure 29.97 in    
Wind  
Wind Speed 3 mph ()    
Max Wind Speed 9 mph    
Max Gust Speed -    
Visibility 5.7 miles    
Events Rain    
Averages and records for this station are not official NWS values.
T = Trace of Precipitation, MM = Missing Value Source: Averaged Metar Reports

Daily Weather History Graph

Daily Weather History Graph

Search for Another Location

Airport:

Trip Planner

Search our weather history database for the weather conditions in past years. The results will help you decide how hot, cold, wet, or windy it might be!

Date:

Astronomy

Feb. 15, 2013 Rise Set
Actual Time 6:57 AM CET 5:37 PM CET
Civil Twilight 6:28 AM CET 6:05 PM CET
Nautical Twilight 5:56 AM CET 6:37 PM CET
Astronomical Twilight 5:24 AM CET 7:09 PM CET
Moon 9:20 AM CET (2/15) 11:24 PM CET (2/15)
Length of Visible Light 11h 36m
Length of Day
10h 40m
Waxing Crescent, 28% of the Moon is Illuminated
Feb 15
Waxing Crescent
Feb 17
First Quarter
Feb 25
Full
Mar 4
Last Quarter
Mar 11
New

Hourly Weather History & Observations

Time (CET) Temp. Windchill Dew Point Humidity Pressure Visibility Wind Dir Wind Speed Gust Speed Precip Events Conditions
12:20 AM 41.0 °F - 35.6 °F 81% 29.95 in 5.0 mi NW 2.3 mph - N/A   Unknown
12:50 AM 39.2 °F 37.0 °F 33.8 °F 81% 29.98 in 5.0 mi NNW 3.5 mph - N/A   Unknown
1:20 AM 41.0 °F 39.0 °F 37.4 °F 87% 29.98 in 5.0 mi NNW 3.5 mph - N/A   Unknown
1:50 AM 41.0 °F - 35.6 °F 81% 29.98 in 5.0 mi Variable 2.3 mph - N/A   Unknown
2:20 AM 39.2 °F 37.0 °F 33.8 °F 81% 29.98 in 5.0 mi NNW 3.5 mph - N/A   Unknown
2:50 AM 39.2 °F 37.0 °F 33.8 °F 81% 29.95 in 5.0 mi North 3.5 mph - N/A   Unknown
3:20 AM 39.2 °F 37.0 °F 33.8 °F 81% 29.95 in 5.0 mi NNW 3.5 mph - N/A   Unknown
3:50 AM 39.2 °F 37.0 °F 33.8 °F 81% 29.95 in 5.0 mi NNW 3.5 mph - N/A   Unknown
4:20 AM 37.4 °F 33.8 °F 32.0 °F 81% 29.95 in 5.0 mi NNW 4.6 mph - N/A   Unknown
4:50 AM 39.2 °F - 33.8 °F 81% 29.95 in 5.0 mi North 2.3 mph - N/A   Unknown
5:20 AM 39.2 °F 37.0 °F 33.8 °F 81% 29.95 in 5.0 mi North 3.5 mph - N/A   Unknown
5:50 AM 37.4 °F - 33.8 °F 87% 29.95 in 5.0 mi NNW 2.3 mph - N/A   Unknown
6:20 AM 39.2 °F - 33.8 °F 81% 29.95 in 5.0 mi Variable 2.3 mph - N/A   Unknown
6:50 AM 37.4 °F 34.9 °F 33.8 °F 87% 29.95 in 5.0 mi WNW 3.5 mph - N/A   Unknown
7:20 AM 39.2 °F - 33.8 °F 81% 29.98 in - West 2.3 mph - N/A   Clear
7:50 AM 39.2 °F - 35.6 °F 87% 29.98 in - North 2.3 mph - N/A   Clear
8:20 AM 42.8 °F 40.1 °F 35.6 °F 76% 29.98 in 6.2 mi NNE 4.6 mph - N/A   Scattered Clouds
8:50 AM 42.8 °F 40.1 °F 35.6 °F 76% 29.98 in 6.2 mi NNE 4.6 mph - N/A   Scattered Clouds
9:20 AM 44.6 °F - 35.6 °F 71% 29.98 in 6.2 mi Variable 2.3 mph - N/A   Mostly Cloudy
9:50 AM 44.6 °F - 37.4 °F 76% 29.98 in 6.2 mi Variable 2.3 mph - N/A   Mostly Cloudy
10:20 AM 46.4 °F - 37.4 °F 71% 30.01 in 6.2 mi Variable 1.2 mph - N/A   Mostly Cloudy
10:50 AM 50.0 °F - 39.2 °F 66% 30.01 in 6.2 mi Variable 1.2 mph - N/A   Mostly Cloudy
11:20 AM 50.0 °F - 41.0 °F 71% 30.01 in 6.2 mi Variable 2.3 mph - N/A   Scattered Clouds
11:50 AM 53.6 °F - 41.0 °F 62% 29.98 in 6.2 mi SSE 3.5 mph - N/A   Partly Cloudy
12:20 PM 53.6 °F - 39.2 °F 58% 29.98 in 6.2 mi Variable 2.3 mph - N/A   Partly Cloudy
12:50 PM 55.4 °F - 41.0 °F 58% 29.98 in 6.2 mi South 6.9 mph - N/A   Partly Cloudy
1:20 PM 53.6 °F - 39.2 °F 58% 29.98 in 6.2 mi SSW 5.8 mph - N/A   Partly Cloudy
2:20 PM 53.6 °F - 41.0 °F 62% 29.95 in 6.2 mi SSW 9.2 mph - N/A   Scattered Clouds
2:50 PM 53.6 °F - 41.0 °F 62% 29.95 in 6.2 mi South 9.2 mph - N/A   Scattered Clouds
3:20 PM 53.6 °F - 42.8 °F 67% 29.98 in 6.2 mi South 6.9 mph - N/A   Scattered Clouds
3:50 PM 53.6 °F - 41.0 °F 62% 29.98 in 6.2 mi West 5.8 mph - N/A   Scattered Clouds
4:20 PM 51.8 °F - 39.2 °F 62% 29.98 in 6.2 mi WNW 6.9 mph - N/A   Scattered Clouds
4:50 PM 51.8 °F - 41.0 °F 67% 29.98 in 6.2 mi West 5.8 mph - N/A   Scattered Clouds
5:20 PM 50.0 °F - 41.0 °F 71% 29.98 in 6.2 mi West 3.5 mph - N/A   Mostly Cloudy
5:50 PM 51.8 °F - 41.0 °F 67% 29.98 in 6.2 mi West 3.5 mph - N/A   Mostly Cloudy
6:20 PM 50.0 °F - 41.0 °F 71% 29.98 in 6.2 mi SW 4.6 mph - N/A   Mostly Cloudy
6:50 PM 48.2 °F - 42.8 °F 82% 29.98 in 6.2 mi WSW 3.5 mph - N/A   Mostly Cloudy
7:20 PM 50.0 °F - 42.8 °F 76% 29.98 in 6.2 mi SSE 3.5 mph - N/A   Mostly Cloudy
7:50 PM 50.0 °F - 44.6 °F 82% 29.98 in 6.2 mi Variable 1.2 mph - N/A   Drizzle
8:20 PM 48.2 °F - 44.6 °F 87% 29.98 in 6.2 mi Variable 1.2 mph - N/A   Drizzle
8:50 PM 50.0 °F - 44.6 °F 82% 29.98 in 6.2 mi NNE 3.5 mph - N/A   Drizzle
9:20 PM 48.2 °F - 42.8 °F 82% 29.98 in 5.0 mi NE 5.8 mph - N/A   Mostly Cloudy
9:50 PM 48.2 °F - 42.8 °F 82% 29.98 in 5.0 mi NNE 4.6 mph - N/A   Mostly Cloudy
10:20 PM 48.2 °F - 42.8 °F 82% 29.98 in 5.0 mi NNE 5.8 mph - N/A   Mostly Cloudy
10:50 PM 48.2 °F - 42.8 °F 82% 29.98 in 5.0 mi ENE 4.6 mph - N/A Rain Light Rain
11:20 PM 48.2 °F - 42.8 °F 82% 29.98 in 5.0 mi NE 3.5 mph - N/A Rain Light Rain
11:50 PM 48.2 °F - 44.6 °F 87% 29.98 in 5.0 mi South 3.5 mph - N/A Rain Light Rain